Wind_Speed
12 13 12 12 12 12 10 11 13 15 15 12 12 15 19 18 16 17 19 20 22 22 20 22 23 22 23 24 24 25 25 26 26 26 26 26 27 28 28 28 29 30 30 31
10 9 11 12 15 16 15 15 15 15 16 13 12 16 19 17 17 17 19 20 21 22 21 22 23 23 24 24 25 26 26 27 27 27 27 27 27 28 29 29 30 30 31 31
10 8 11 13 15 15 15 15 15 17 17 15 14 17 19 19 18 18 19 21 21 22 22 22 23 23 24 25 26 27 27 28 28 28 28 28 29 29 30 30 31 31 31 31
9 10 12 13 12 13 14 15 14 15 14 13 14 16 20 22 20 19 18 20 21 22 22 22 23 24 25 26 27 27 28 28 29 30 31 31 31 31 32 32 31 31 31 31
7 9 11 12 11 13 13 14 15 15 15 15 15 16 20 21 21 19 16 18 20 20 21 22 23 24 25 26 26 27 27 28 28 29 30 31 31 31 32 32 32 32 32 31
8 9 10 11 12 12 11 12 13 15 16 16 17 17 19 22 20 18 15 16 19 20 21 22 23 24 25 26 27 27 27 27 28 28 29 30 30 31 32 32 32 32 31 31
7 8 10 11 11 12 13 13 12 14 14 15 16 17 20 21 19 18 15 17 20 21 22 23 24 25 26 27 27 27 28 28 29 29 30 30 30 31 32 32 32 31 31 31
10 10 10 10 10 11 11 11 12 13 13 13 14 17 20 20 18 18 19 21 21 23 23 24 24 25 26 26 27 27 28 28 29 29 30 30 31 31 31 31 31 31 31 31
11 10 10 9 9 10 10 10 12 13 12 14 13 15 18 18 18 17 19 20 21 23 23 23 24 25 26 26 26 27 27 28 28 28 29 30 31 31 31 31 30 30 31 31
9 9 8 7 8 11 12 12 13 12 12 12 11 14 18 18 19 18 18 20 22 24 23 24 25 26 27 27 27 28 28 28 28 29 30 30 30 30 30 30 30 30 30 30
11 12 11 10 10 10 11 13 14 13 14 14 15 15 19 17 18 17 20 22 23 24 25 26 27 28 28 29 29 29 29 29 29 29 29 29 29 29 29 29 29 29 29 29
13 14 13 13 12 11 13 13 14 14 15 17 20 20 18 18 19 19 21 22 24 25 26 27 28 28 29 29 29 30 30 29 30 29 29 29 28 28 29 29 29 28 28 28
14 14 14 14 14 13 12 12 13 14 15 16 18 20 20 21 22 22 23 24 25 26 27 28 28 29 29 30 30 30 30 30 30 29 28 28 28 28 27 27 27 27 26 26
16 15 14 12 10 11 11 12 13 15 15 16 19 22 22 22 22 23 25 26 26 27 28 29 30 30 31 31 31 30 30 30 30 29 28 27 28 27 26 25 25 25 24 23
15 15 15 13 12 11 11 11 12 13 15 18 21 22 22 22 23 24 26 27 27 28 29 30 30 31 31 31 31 30 29 28 28 28 27 27 27 25 25 24 23 22 22 22
14 14 14 13 13 12 11 12 14 15 16 18 21 23 23 24 25 27 28 28 28 28 29 30 30 30 30 30 29 28 27 26 26 26 26 26 25 24 23 22 22 21 20 20
14 14 14 13 12 11 12 12 13 15 17 19 21 23 23 25 27 28 28 29 29 29 30 30 30 29 29 28 27 26 25 24 24 24 24 23 23 22 21 21 20 19 18 18
13 13 13 13 13 13 12 13 14 16 18 19 21 23 24 25 27 28 28 29 30 30 29 29 29 28 27 25 24 23 22 22 21 21 21 20 19 18 18 17 18 17 17 16
11 12 12 12 12 12 12 14 14 16 18 20 21 23 25 27 28 27 28 28 29 29 28 28 27 25 24 23 22 20 19 18 18 17 16 15 15 15 14 13 14 14 14 15
11 11 12 12 13 14 13 13 14 17 19 19 21 22 25 26 28 28 28 28 28 27 26 25 24 22 21 19 19 17 16 15 14 13 12 12 12 12 12 11 10 11 12 12
11 11 11 11 12 14 14 12 14 16 18 21 22 23 25 26 27 27 27 26 25 24 23 22 20 19 17 16 15 14 13 12 11 9 9 9 9 9 10 10 9 9 10 11
9 10 10 11 12 13 13 13 16 18 20 22 23 24 25 25 26 26 25 24 23 22 20 18 16 15 14 13 11 10 9 8 8 7 7 8 8 7 8 9 8 8 8 8
8 9 9 10 11 12 13 14 15 18 20 21 22 24 24 25 24 24 23 22 21 19 17 15 13 12 10 9 8 7 6 5 5 5 5 6 6 7 7 7 8 7 6 6
7 8 8 9 10 11 12 13 15 17 19 21 22 23 23 23 22 22 20 19 17 15 13 12 10 8 7 6 5 4 3 1 2 4 5 6 6 7 7 6 5 5 6 6
5 6 8 9 9 10 11 13 15 17 18 20 22 21 21 21 20 19 18 16 14 12 10 9 7 5 4 4 3 2 0 2 5 5 6 7 6 6 6 5 5 5 5 4
4 5 7 8 9 11 12 13 15 16 18 19 19 19 19 18 17 16 14 13 12 10 8 6 4 3 2 2 2 2 4 5 7 7 7 7 7 6 6 6 6 6 5 4
Wind_Direction
211 204 198 198 200 195 199 211 221 228 240 237 226 233 245 253 256 258 259 259 259 261 265 266 271 276 278 278 277 277 278 276 276 276 277 276 274 274 273 275 275 275 272 273
197 202 204 199 205 203 199 202 211 219 236 234 223 237 248 254 257 254 258 261 260 266 268 267 272 276 276 276 277 277 277 277 277 277 276 275 274 272 272 274 274 275 273 272
197 202 212 210 212 205 200 196 204 222 235 236 224 232 247 254 255 253 259 263 264 267 267 269 273 275 277 278 278 278 277 276 276 275 274 274 274 274 274 274 274 274 274 274
202 208 215 213 210 204 202 202 207 225 228 234 236 237 248 255 260 257 258 262 265 267 269 270 272 275 278 279 279 279 278 277 276 275 273 273 273 273 274 273 273 273 273 272
206 215 211 208 205 208 203 206 209 221 228 227 240 245 252 258 265 263 255 263 269 272 273 274 275 278 279 280 280 279 279 278 277 276 275 274 273 274 274 273 273 273 273 272
201 217 210 203 205 210 199 211 217 223 232 231 235 245 255 264 265 263 263 272 279 279 278 279 279 280 282 283 282 280 277 277 278 278 277 276 275 274 274 274 274 273 273 273
199 215 215 212 209 209 207 212 229 239 240 240 236 241 257 269 275 275 277 288 287 283 282 282 282 283 283 284 283 281 279 278 278 277 276 275 275 275 275 274 274 273 272 273
204 216 219 215 210 210 212 209 234 251 264 261 241 238 245 257 268 275 285 290 288 285 284 283 283 285 286 286 285 284 282 280 279 277 276 275 275 275 274 273 273 272 272 273
207 213 220 219 217 216 218 225 238 250 263 264 250 241 240 252 263 274 285 288 287 285 284 284 286 288 288 287 287 286 285 283 281 279 278 277 276 275 274 274 274 273 273 273
201 207 215 231 220 217 221 225 241 251 269 278 277 260 259 266 268 273 282 288 289 287 287 287 289 289 289 288 288 287 286 284 282 281 280 279 277 275 274 274 274 273 274 274
212 205 207 220 227 228 231 229 233 242 252 270 275 272 276 280 280 285 292 292 290 290 290 291 291 290 290 290 288 287 286 284 283 281 280 279 277 276 275 274 273 273 274 274
218 210 205 205 219 231 232 235 240 241 245 255 270 277 279 286 290 292 296 296 294 293 292 293 293 292 292 291 289 287 285 284 283 282 281 278 278 278 276 274 273 273 273 272
215 218 215 211 217 225 227 235 244 248 250 258 270 279 287 293 295 299 298 296 296 295 295 295 295 294 293 292 290 288 286 285 284 283 280 279 278 278 276 274 272 271 272 271
216 222 226 231 229 233 234 235 245 253 258 263 268 277 283 286 293 297 297 296 296 296 296 296 296 295 294 293 291 290 288 286 283 281 279 277 277 275 273 271 271 270 269 268
220 221 225 230 238 242 246 246 254 258 262 270 276 281 286 292 294 296 298 298 298 297 297 297 296 296 295 293 291 289 288 285 283 279 277 276 275 273 270 269 269 268 267 265
222 221 225 230 235 243 255 256 256 260 265 270 278 284 289 294 297 298 299 299 299 299 298 298 297 297 295 293 291 288 286 284 282 279 277 275 274 271 268 266 264 267 266 262
230 226 225 226 235 246 253 252 259 266 270 274 278 282 289 294 296 298 299 300 300 300 300 299 298 297 295 294 291 287 286 283 281 278 276 273 270 267 264 261 260 261 261 257
231 233 232 230 237 247 250 253 257 266 273 281 282 285 291 294 298 300 301 300 301 301 300 299 299 298 297 295 293 291 287 283 281 279 276 270 264 260 260 259 258 255 252 251
230 233 233 237 241 247 253 256 262 270 279 287 289 294 299 300 302 303 304 304 304 303 302 301 300 298 296 294 293 292 288 283 281 280 275 266 259 256 251 256 254 250 246 244
229 231 235 240 244 255 259 262 275 283 288 291 294 299 304 307 306 308 309 308 307 305 304 302 301 299 296 294 294 291 286 283 281 277 269 260 254 248 245 250 249 247 243 238
228 229 234 243 254 262 270 283 292 292 298 301 304 308 309 309 310 311 311 311 309 307 306 304 302 300 297 295 294 291 285 281 275 267 257 247 243 236 238 242 242 241 235 232
232 235 241 247 256 262 272 283 291 296 300 304 307 309 311 312 312 312 313 311 310 309 308 306 303 302 300 298 295 293 288 278 266 261 251 232 225 227 227 224 223 225 223 224
237 241 250 259 265 273 281 288 294 301 305 308 311 312 313 314 316 317 316 315 313 312 311 309 306 304 303 301 299 296 291 271 251 241 218 204 207 208 208 207 206 205 205 212
245 253 262 266 275 281 290 293 299 307 311 314 315 318 319 319 321 322 322 321 319 318 316 314 312 308 306 306 312 308 294 253 197 179 179 183 185 180 179 188 184 186 193 202
256 266 271 275 287 298 301 305 308 311 314 317 319 322 325 326 327 327 328 329 332 334 331 325 320 316 312 311 315 328 318 153 151 154 158 160 162 164 162 161 160 159 162 173
277 283 286 289 296 301 306 309 313 316 319 321 324 327 330 331 333 334 337 340 344 345 347 349 345 344 350 360 40 89 112 125 128 128 137 146 145 142 144 147 141 138 142 144
Height
5796 5799 5802 5806 5809 5813 5817 5821 5824 5825 5824 5826 5827 5827 5827 5826 5827 5828 5828 5828 5828 5827 5828 5829 5828 5829 5830 5831 5831 5831 5832 5833 5833 5833 5833 5833 5834 5834 5834 5834 5834 5834 5835 5836
5796 5798 5801 5804 5807 5809 5813 5817 5821 5822 5822 5823 5825 5826 5824 5824 5825 5825 5824 5823 5824 5824 5825 5826 5825 5826 5826 5827 5827 5827 5827 5827 5827 5827 5827 5828 5828 5828 5828 5829 5829 5829 5829 5829
5795 5799 5800 5802 5804 5807 5810 5814 5818 5819 5819 5820 5822 5823 5822 5821 5821 5822 5822 5821 5820 5821 5822 5822 5822 5823 5823 5822 5822 5822 5821 5821 5821 5821 5821 5821 5821 5822 5822 5822 5822 5822 5823 5823
5793 5796 5798 5800 5803 5805 5809 5812 5814 5816 5817 5818 5820 5820 5819 5817 5817 5818 5818 5817 5817 5818 5818 5818 5818 5818 5818 5817 5817 5816 5816 5816 5815 5815 5815 5815 5815 5815 5815 5815 5816 5816 5816 5816
5793 5795 5796 5799 5801 5803 5806 5809 5811 5813 5814 5815 5816 5816 5814 5813 5813 5813 5812 5813 5814 5814 5814 5814 5814 5813 5813 5812 5812 5811 5810 5810 5809 5808 5808 5808 5808 5808 5808 5808 5808 5809 5809 5809
5792 5794 5795 5798 5800 5801 5803 5807 5808 5809 5810 5811 5812 5812 5809 5808 5807 5807 5807 5809 5810 5810 5810 5809 5809 5808 5808 5807 5806 5805 5805 5804 5803 5802 5802 5801 5801 5801 5801 5801 5801 5801 5802 5802
5792 5793 5794 5796 5798 5800 5802 5805 5806 5806 5806 5807 5808 5809 5807 5804 5804 5804 5804 5805 5806 5806 5805 5805 5804 5803 5803 5801 5800 5799 5799 5798 5797 5796 5795 5795 5794 5794 5794 5794 5794 5794 5794 5794
5790 5792 5793 5795 5797 5799 5800 5803 5804 5804 5803 5803 5803 5804 5803 5801 5801 5801 5801 5802 5802 5801 5801 5800 5799 5798 5797 5796 5794 5793 5792 5791 5790 5789 5788 5788 5787 5786 5786 5786 5786 5786 5787 5787
5787 5790 5792 5793 5795 5797 5799 5800 5801 5801 5801 5799 5799 5799 5796 5797 5798 5799 5799 5799 5798 5797 5796 5795 5794 5792 5791 5790 5788 5787 5785 5784 5783 5782 5781 5780 5780 5779 5778 5778 5778 5778 5779 5779
5785 5788 5790 5792 5794 5796 5797 5798 5799 5799 5798 5797 5796 5795 5794 5794 5795 5796 5796 5795 5794 5793 5791 5790 5788 5787 5785 5783 5782 5780 5778 5777 5776 5774 5774 5773 5772 5771 5771 5771 5770 5770 5771 5771
5783 5786 5789 5791 5792 5794 5795 5796 5796 5797 5797 5796 5794 5795 5791 5789 5789 5790 5791 5790 5789 5788 5786 5784 5782 5780 5778 5777 5775 5773 5771 5770 5768 5767 5766 5765 5764 5763 5763 5763 5763 5763 5764 5764
5781 5784 5785 5788 5790 5791 5792 5793 5794 5795 5795 5794 5792 5793 5788 5787 5786 5786 5785 5784 5783 5782 5780 5778 5776 5773 5771 5769 5767 5765 5763 5762 5760 5759 5758 5757 5756 5756 5755 5755 5755 5755 5756 5756
5780 5781 5783 5784 5787 5788 5789 5791 5791 5792 5792 5791 5790 5790 5785 5784 5782 5782 5781 5780 5778 5776 5774 5771 5769 5767 5764 5761 5759 5757 5755 5753 5752 5751 5750 5749 5748 5748 5747 5747 5747 5748 5749 5749
5777 5778 5780 5782 5782 5783 5786 5787 5788 5789 5789 5789 5787 5785 5782 5781 5779 5778 5777 5775 5772 5770 5767 5765 5762 5759 5756 5753 5751 5749 5746 5745 5743 5742 5742 5741 5741 5740 5740 5740 5741 5741 5742 5743
5774 5776 5777 5779 5780 5781 5783 5785 5786 5786 5786 5785 5783 5780 5778 5777 5775 5773 5771 5769 5766 5763 5760 5757 5754 5751 5748 5745 5742 5740 5738 5736 5735 5734 5734 5733 5733 5733 5733 5734 5735 5735 5736 5737
5771 5773 5775 5776 5778 5779 5780 5782 5783 5783 5782 5781 5780 5777 5775 5773 5771 5768 5766 5762 5759 5756 5753 5750 5746 5743 5740 5737 5734 5732 5730 5728 5727 5726 5726 5726 5726 5726 5726 5727 5728 5730 5731 5732
5768 5771 5772 5774 5775 5776 5778 5778 5779 5779 5778 5777 5775 5774 5771 5768 5766 5763 5759 5756 5752 5749 5745 5742 5738 5735 5732 5729 5726 5724 5722 5721 5720 5719 5719 5718 5718 5719 5720 5721 5723 5724 5726 5727
5766 5768 5770 5771 5773 5774 5776 5775 5775 5775 5773 5773 5771 5768 5766 5763 5760 5757 5753 5749 5746 5742 5738 5734 5730 5727 5724 5721 5718 5717 5715 5714 5713 5713 5712 5712 5713 5714 5715 5716 5718 5720 5721 5723
5763 5766 5767 5769 5770 5771 5771 5771 5771 5770 5769 5768 5766 5763 5760 5757 5753 5750 5746 5742 5738 5734 5730 5726 5723 5720 5717 5714 5712 5710 5709 5708 5708 5707 5707 5708 5708 5709 5711 5713 5714 5716 5718 5720
5761 5763 5765 5766 5767 5767 5767 5767 5767 5768 5765 5763 5761 5758 5755 5751 5748 5744 5739 5735 5730 5726 5723 5719 5716 5713 5711 5708 5707 5705 5704 5704 5703 5703 5703 5704 5705 5706 5708 5710 5711 5713 5715 5717
5759 5761 5763 5764 5765 5764 5764 5764 5765 5765 5763 5759 5756 5753 5750 5746 5742 5737 5732 5728 5724 5720 5716 5713 5710 5708 5706 5704 5702 5701 5700 5700 5700 5700 5701 5701 5703 5704 5706 5707 5709 5711 5713 5715
5758 5759 5761 5762 5762 5764 5762 5762 5762 5761 5757 5755 5752 5748 5744 5740 5736 5731 5726 5722 5718 5715 5711 5708 5706 5704 5702 5700 5699 5698 5697 5697 5697 5698 5698 5700 5701 5703 5704 5706 5708 5710 5712 5714
5757 5759 5759 5760 5762 5761 5760 5759 5758 5756 5754 5751 5748 5744 5740 5735 5731 5726 5721 5717 5714 5710 5707 5704 5702 5701 5699 5698 5697 5696 5696 5696 5696 5696 5697 5699 5700 5702 5704 5705 5707 5709 5711 5713
5756 5756 5758 5758 5758 5758 5758 5757 5755 5753 5750 5747 5743 5739 5735 5731 5726 5722 5717 5713 5710 5706 5704 5702 5700 5699 5698 5697 5696 5696 5695 5695 5696 5696 5698 5699 5700 5702 5704 5706 5707 5709 5711 5713
5756 5756 5757 5757 5757 5756 5756 5754 5752 5750 5747 5743 5739 5735 5731 5727 5723 5719 5715 5711 5707 5705 5702 5700 5699 5698 5697 5697 5696 5696 5696 5696 5696 5697 5698 5700 5702 5703 5705 5707 5708 5710 5711 5713
5754 5755 5756 5756 5755 5755 5754 5752 5749 5747 5744 5740 5736 5732 5728 5724 5721 5717 5713 5710 5707 5704 5702 5700 5699 5698 5698 5697 5697 5697 5697 5697 5698 5699 5700 5702 5704 5705 5706 5708 5710 5711 5713 5714